Location: Unspecified
(0.0000°N, 0.0000°E)
Time: 16:23:23
(UTC+00:00)

S-56A Canister/Altair - Visible Passes

Search period start: 31 October 2014 00:00
Search period end: 10 November 2014 00:00
Orbit: 632 x 2503 km, 38.9° (Epoch: 29 October)

Date Brightness Start Highest point End Pass type
(mag) Time Alt. Az. Time Alt. Az. Time Alt. Az.
05 Nov 11.4 20:26:27 10° N 20:27:03 11° N 20:27:03 11° N visible
06 Nov 11.3 19:54:07 10° N 19:56:33 11° NNE 19:56:33 11° NNE visible
07 Nov 11.3 19:22:23 10° N 19:24:52 11° NNE 19:26:08 10° NNE visible
07 Nov 11.5 21:23:03 10° NNW 21:23:36 11° NNW 21:23:36 11° NNW visible
08 Nov 11.2 20:50:06 10° NNW 20:53:15 17° NNW 20:53:15 17° NNW visible
09 Nov 11.0 20:17:14 10° NNW 20:23:01 21° N 20:23:01 21° N visible
